Showing default

DIADEME 1, 2674

Orbit data source: Space-Track

DIADEME 1, 2674 is a payload satellite owned by CNES (FR) in LEO that was launched on Wed, 08 Feb 1967 UTC via a DIAMANT A launch vehicle from the Hamma Guira Space Track Range (HGSTR). Payload-class satellites include a variety of spacecraft equipped with specific instruments for various scientific and technological missions. These include communications satellites like Starlink; space stations such as the ISS; scientific satellites like the Hubble; Earth observation satellites from companies like Planet Labs, Umbra, and HawkEye 360; GPS; miniature CubeSats for education and research; and military/defense satellites.

Loading next visibility...
Identifier
2674, 1967-011A
Orbit
LEO
Country
Flag of FRFR
Related business
Manufacturer
CNES
Mission
Spacecraft
Bus & Motor
D-1, Unknown motor
Mass
23 kg wet, 23 kg dry
Launch date (UTC)
1967-02-08 (59 years ago)
Launch vehicle
DIAMANT A
Launch site
Hamma Guira Space Track Range (HGSTR)
Object type
Payload
Rocket body
Debris
Shape & HBR
Unknown
Radar Cross Section
Medium (>0.1 m² and <1 m²)

Expand to show TLE details & history
Last TLE update: 5 hours ago

TLE from 5 hours ago
0 DIADEME 1
1  2674U 67011A   25306.48763522  .00007818  00000-0  88733-3 0  9993
2  2674  39.9147 100.8526 0213570 128.9397 233.0630 14.71245876 56668
Epoch: 2025-11-02T11:42Z
TLE epoch observation values (Epoch: 2025-11-02T11:42:11.683Z)
Latitude
-0.00004°
Longitude
-116.69878°
Altitude
748.829 km
Speed
7.433 km/s
True Right ascension
06h 43m 24s
True Declination
0° 00' 00"
Sunlit
Object was in daylight at epoch
Visualization orbit readout
Latitude
Unknown
Longitude
Unknown
Altitude
Unknown
Speed
Unknown
Apparent Right ascension
Unknown
Apparent Declination
Unknown
Sunlit
N/A
Visualization observer readout
Local Sidereal Time
12:25:02
Azimuth
Unknown
Elevation
Unknown
Doppler factor
Unknown
Orbital elements
Apogee altitude
809.797 km
Perigee altitude
509.192 km
Semi-major axis
7,037.631 km
Eccentricity
0.02136
Inclination
39.9147°
RAAN
100.8526°
Arg. of periapsis
128.9397°
True anomaly
231.13812°
Mean anomaly
233.063°
Eccentric anomaly
232.09746°
Mean motion
3.67624 °/min
Orbital period
97.93 mins
BSTAR
0.00088733
Loading maneuver chart data...
Computing Atmospheric mass density...

Documentation

Showing up to 5 results
|